Weather History for KFXY - January, 2014

Change the Weather History Date:

Wednesday, January 1, 2014

  Actual Average (WUND) Record (WUND)
Temperature  
Mean Temperature 2 °F -  
Max Temperature 5 °F - - (-1)
Min Temperature -2 °F - - (-1)
Degree Days  
Heating Degree Days 64    
Moisture  
Dew Point -7 °F    
Average Humidity 67    
Maximum Humidity 78    
Minimum Humidity 61    
Precipitation  
Precipitation 0.00 in - - ()
Sea Level Pressure  
Sea Level Pressure 30.30 in    
Wind  
Wind Speed 9 mph (NNE)    
Max Wind Speed 14 mph    
Max Gust Speed 17 mph    
Visibility 10 miles    
Events      
Averages and records for this station are not official NWS values.
T = Trace of Precipitation, MM = Missing Value Source: NWS Daily Summary

Daily Weather History Graph

Daily Weather History Graph

Search for Another Location

Airport or City:

Trip Planner

Search our weather history database for the weather conditions in past years. The results will help you decide how hot, cold, wet, or windy it might be!

Date:

Astronomy

Jan. 01, 2014 Rise Set
Actual Time 7:46 AM CST 4:49 PM CST
Civil Twilight 7:14 AM CST 5:22 PM CST
Nautical Twilight 6:38 AM CST 5:58 PM CST
Astronomical Twilight 6:03 AM CST 6:32 PM CST
Moon 7:35 AM CST (1/1) 5:37 PM CST (1/1)
Length of Visible Light 10h 07m
Length of Day
9h 03m
New Moon, 0% of the Moon is Illuminated
Jan 1
New Moon
Jan 7
First Quarter
Jan 15
Full
Jan 23
Last Quarter
Jan 30
New

Hourly Weather History & Observations

Time (CST) Temp. Windchill Dew Point Humidity Pressure Visibility Wind Dir Wind Speed Gust Speed Precip Events Conditions
12:15 AM 1.4 °F -12.5 °F -5.8 °F 72% 30.25 in 10.0 mi NE 8.1 mph - N/A   Scattered Clouds
12:35 AM -0.4 °F -14.7 °F -7.6 °F 72% 30.24 in 10.0 mi NE 8.1 mph - N/A   Clear
12:55 AM -0.4 °F -12.0 °F -7.6 °F 72% 30.25 in 10.0 mi NE 5.8 mph - N/A   Clear
1:15 AM -0.4 °F -14.7 °F -9.4 °F 66% 30.25 in 10.0 mi NE 8.1 mph - N/A   Clear
1:35 AM -2.2 °F -18.0 °F -7.6 °F 78% 30.25 in 10.0 mi NNE 9.2 mph - N/A   Mostly Cloudy
1:55 AM -2.2 °F -19.9 °F -9.4 °F 71% 30.26 in 10.0 mi NNE 11.5 mph - N/A   Overcast
2:15 AM -2.2 °F -20.7 °F -9.4 °F 71% 30.26 in 10.0 mi NNE 12.7 mph - N/A   Overcast
2:35 AM -2.2 °F -19.9 °F -9.4 °F 71% 30.26 in 10.0 mi NNE 11.5 mph - N/A   Overcast
2:55 AM -2.2 °F -16.8 °F -9.4 °F 71% 30.26 in 10.0 mi NE 8.1 mph - N/A   Overcast
3:15 AM -2.2 °F -19.9 °F -9.4 °F 71% 30.26 in 10.0 mi NE 11.5 mph - N/A   Overcast
3:35 AM -2.2 °F -18.9 °F -9.4 °F 71% 30.26 in 10.0 mi NE 10.4 mph - N/A   Overcast
3:55 AM -0.4 °F -13.4 °F -9.4 °F 66% 30.27 in 10.0 mi NE 6.9 mph - N/A   Overcast
4:15 AM -0.4 °F -14.7 °F -9.4 °F 66% 30.27 in 10.0 mi NE 8.1 mph - N/A   Overcast
4:35 AM -0.4 °F -15.7 °F -9.4 °F 66% 30.27 in 10.0 mi NE 9.2 mph - N/A   Overcast
4:55 AM -0.4 °F -14.7 °F -9.4 °F 66% 30.26 in 10.0 mi NE 8.1 mph - N/A   Overcast
5:15 AM -0.4 °F -14.7 °F -9.4 °F 66% 30.26 in 10.0 mi NE 8.1 mph - N/A   Overcast
5:35 AM -0.4 °F -13.4 °F -9.4 °F 66% 30.26 in 10.0 mi NE 6.9 mph - N/A   Overcast
5:55 AM -0.4 °F -14.7 °F -9.4 °F 66% 30.27 in 10.0 mi NE 8.1 mph - N/A   Overcast
6:15 AM -0.4 °F -14.7 °F -9.4 °F 66% 30.27 in 10.0 mi NE 8.1 mph - N/A   Overcast
6:35 AM -0.4 °F -16.7 °F -9.4 °F 66% 30.27 in 10.0 mi NNE 10.4 mph 17.3 mph N/A   Mostly Cloudy
6:55 AM -0.4 °F -17.6 °F -9.4 °F 66% 30.27 in 10.0 mi NE 11.5 mph - N/A   Clear
7:15 AM -0.4 °F -13.4 °F -9.4 °F 66% 30.27 in 10.0 mi NE 6.9 mph - N/A   Clear
7:35 AM -0.4 °F -15.7 °F -9.4 °F 66% 30.28 in 10.0 mi NE 9.2 mph - N/A   Clear
7:55 AM -0.4 °F -14.7 °F -9.4 °F 66% 30.29 in 10.0 mi NE 8.1 mph - N/A   Clear
8:15 AM -2.2 °F -15.6 °F -9.4 °F 71% 30.29 in 10.0 mi NE 6.9 mph - N/A   Clear
8:35 AM -2.2 °F -15.6 °F -9.4 °F 71% 30.31 in 10.0 mi NNE 6.9 mph - N/A   Clear
8:55 AM -2.2 °F -18.9 °F -9.4 °F 71% 30.31 in 10.0 mi NNE 10.4 mph - N/A   Clear
9:15 AM -2.2 °F -18.9 °F -11.2 °F 66% 30.32 in 10.0 mi NNE 10.4 mph 16.1 mph N/A   Scattered Clouds
9:35 AM -2.2 °F -18.9 °F -11.2 °F 66% 30.33 in 10.0 mi NNE 10.4 mph - N/A   Scattered Clouds
9:55 AM -0.4 °F -17.6 °F -9.4 °F 66% 30.33 in 10.0 mi NNE 11.5 mph - N/A   Mostly Cloudy
10:15 AM -0.4 °F -19.2 °F -9.4 °F 66% 30.35 in 10.0 mi NNE 13.8 mph - N/A   Overcast
10:35 AM 1.4 °F -13.5 °F -9.4 °F 61% 30.34 in 10.0 mi NE 9.2 mph - N/A   Overcast
10:55 AM 1.4 °F -16.1 °F -7.6 °F 66% 30.34 in 10.0 mi NNE 12.7 mph 16.1 mph N/A   Overcast
11:15 AM 1.4 °F -14.5 °F -7.6 °F 66% 30.33 in 10.0 mi NE 10.4 mph - N/A   Overcast
11:35 AM 3.2 °F -12.2 °F -7.6 °F 61% 30.33 in 10.0 mi NE 10.4 mph - N/A   Overcast
11:55 AM 3.2 °F -12.2 °F -7.6 °F 61% 30.32 in 10.0 mi NE 10.4 mph - N/A   Overcast
12:15 PM 3.2 °F -10.3 °F -7.6 °F 61% 30.32 in 10.0 mi NE 8.1 mph 16.1 mph N/A   Overcast
12:35 PM 3.2 °F -10.3 °F -7.6 °F 61% 30.31 in 10.0 mi NE 8.1 mph - N/A   Overcast
12:55 PM 3.2 °F -12.2 °F -7.6 °F 61% 30.30 in 10.0 mi NE 10.4 mph - N/A   Overcast
1:15 PM 3.2 °F -11.3 °F -7.6 °F 61% 30.29 in 10.0 mi NNE 9.2 mph - N/A   Overcast
1:35 PM 3.2 °F -12.2 °F -5.8 °F 66% 30.29 in 10.0 mi North 10.4 mph - N/A   Overcast
1:55 PM 3.2 °F -11.3 °F -7.6 °F 61% 30.29 in 10.0 mi NNE 9.2 mph - N/A   Overcast
2:15 PM 3.2 °F -11.3 °F -7.6 °F 61% 30.29 in 10.0 mi North 9.2 mph - N/A   Overcast
2:35 PM 3.2 °F -10.3 °F -5.8 °F 66% 30.29 in 10.0 mi North 8.1 mph - N/A   Overcast
2:55 PM 5.0 °F -8.1 °F -5.8 °F 61% 30.28 in 10.0 mi North 8.1 mph - N/A   Overcast
3:15 PM 5.0 °F -9.1 °F -5.8 °F 61% 30.29 in 10.0 mi North 9.2 mph - N/A   Overcast
3:35 PM 5.0 °F -8.1 °F -4.0 °F 66% 30.29 in 10.0 mi North 8.1 mph - N/A   Overcast
3:55 PM 5.0 °F -9.1 °F -5.8 °F 61% 30.30 in 10.0 mi NNE 9.2 mph - N/A   Overcast
4:15 PM 5.0 °F -6.9 °F -5.8 °F 61% 30.31 in 10.0 mi North 6.9 mph - N/A   Overcast
4:35 PM 3.2 °F -9.1 °F -4.0 °F 72% 30.32 in 10.0 mi North 6.9 mph - N/A   Overcast
4:55 PM 3.2 °F -10.3 °F -5.8 °F 66% 30.32 in 10.0 mi North 8.1 mph - N/A   Overcast
5:15 PM 3.2 °F -9.1 °F -5.8 °F 66% 30.32 in 10.0 mi North 6.9 mph - N/A   Overcast
5:35 PM 3.2 °F -11.3 °F -5.8 °F 66% 30.33 in 10.0 mi North 9.2 mph - N/A   Overcast
5:55 PM 3.2 °F -10.3 °F -5.8 °F 66% 30.33 in 10.0 mi North 8.1 mph - N/A   Overcast
6:15 PM 3.2 °F -11.3 °F -4.0 °F 72% 30.33 in 10.0 mi North 9.2 mph - N/A   Overcast
6:35 PM 3.2 °F -11.3 °F -4.0 °F 72% 30.34 in 10.0 mi North 9.2 mph - N/A   Overcast
6:55 PM 3.2 °F -10.3 °F -4.0 °F 72% 30.34 in 10.0 mi North 8.1 mph - N/A   Overcast
7:15 PM 5.0 °F -10.0 °F -4.0 °F 66% 30.35 in 10.0 mi North 10.4 mph - N/A   Overcast
7:35 PM 3.2 °F -13.1 °F -4.0 °F 72% 30.34 in 10.0 mi North 11.5 mph - N/A   Overcast
7:55 PM 3.2 °F -11.3 °F -4.0 °F 72% 30.34 in 10.0 mi North 9.2 mph - N/A   Overcast
8:15 PM 3.2 °F -12.2 °F -4.0 °F 72% 30.34 in 10.0 mi North 10.4 mph - N/A   Overcast
8:35 PM 3.2 °F -10.3 °F -4.0 °F 72% 30.35 in 10.0 mi North 8.1 mph - N/A   Overcast
8:55 PM 3.2 °F -13.1 °F -4.0 °F 72% 30.35 in 10.0 mi North 11.5 mph - N/A   Overcast
9:15 PM 3.2 °F -10.3 °F -4.0 °F 72% 30.35 in 10.0 mi North 8.1 mph - N/A   Overcast
9:35 PM 3.2 °F -12.2 °F -5.8 °F 66% 30.35 in 10.0 mi North 10.4 mph - N/A   Overcast
9:55 PM 3.2 °F -7.8 °F -5.8 °F 66% 30.35 in 10.0 mi North 5.8 mph - N/A   Overcast
10:15 PM 3.2 °F -10.3 °F -5.8 °F 66% 30.35 in 10.0 mi North 8.1 mph - N/A   Overcast
10:35 PM 3.2 °F -10.3 °F -5.8 °F 66% 30.35 in 10.0 mi North 8.1 mph - N/A   Overcast
10:55 PM 3.2 °F -10.3 °F -4.0 °F 72% 30.34 in 10.0 mi North 8.1 mph - N/A   Overcast
11:15 PM 3.2 °F -10.3 °F -4.0 °F 72% 30.33 in 10.0 mi North 8.1 mph - N/A   Overcast
11:35 PM 3.2 °F -11.3 °F -4.0 °F 72% 30.33 in 10.0 mi North 9.2 mph - N/A   Overcast
11:55 PM 3.2 °F -10.3 °F -4.0 °F 72% 30.33 in 10.0 mi North 8.1 mph - N/A   Overcast